Albuquerque Double Eagle, NM

9:51 PM MDT on March 22, 2017 (GMT -0600)
Double Eagle Ii

Weather History for KAEG - February, 2013

Change the Weather History Date:

Monday, February 18, 2013

  Actual Average (KABQ) Record (KABQ)
Temperature  
Mean Temperature 32 °F -  
Max Temperature 46 °F 55 °F 75 °F (2016)
Min Temperature 19 °F 29 °F 6 °F (1910)
Degree Days  
Heating Degree Days 32    
Moisture  
Dew Point -6 °F    
Average Humidity 21    
Maximum Humidity 47    
Minimum Humidity 4    
Precipitation  
Precipitation 0.00 in - - ()
Sea Level Pressure  
Sea Level Pressure 30.00 in    
Wind  
Wind Speed 15 mph (NW)    
Max Wind Speed 23 mph    
Max Gust Speed 30 mph    
Visibility 10 miles    
Events      
Averages and records for this station are not official NWS values.
T = Trace of Precipitation, MM = Missing Value Source: NWS Daily Summary

Daily Weather History Graph

Daily Weather History Graph

Search for Another Location

Airport or City:

Trip Planner

Search our weather history database for the weather conditions in past years. The results will help you decide how hot, cold, wet, or windy it might be!

Date:

Astronomy

Feb. 18, 2013 Rise Set
Actual Time 6:49 AM MST 5:52 PM MST
Civil Twilight 6:23 AM MST 6:18 PM MST
Nautical Twilight 5:54 AM MST 6:48 PM MST
Astronomical Twilight 5:24 AM MST 7:17 PM MST
Moon 11:47 AM MST (2/18) 1:25 AM MST (2/18)
Length of Visible Light 11h 54m
Length of Day
11h 03m
First Quarter, 59% of the Moon is Illuminated
Feb 18
First Quarter
Feb 25
Full
Mar 4
Last Quarter
Mar 11
New
Mar 19
First Quarter

Hourly Weather History & Observations

Time (MST) Temp. Windchill Dew Point Humidity Pressure Visibility Wind Dir Wind Speed Gust Speed Precip Events Conditions
12:15 AM 39.2 °F 29.6 °F 5.0 °F 24% 29.84 in 10.0 mi WSW 19.6 mph - N/A   Clear
12:35 AM 37.4 °F 27.2 °F 5.0 °F 26% 29.84 in 10.0 mi West 19.6 mph 24.2 mph N/A   Clear
12:55 AM 37.4 °F 26.9 °F 5.0 °F 26% 29.84 in 10.0 mi West 20.7 mph - N/A   Clear
1:15 AM 37.4 °F 26.4 °F 5.0 °F 26% 29.84 in 10.0 mi West 23.0 mph 27.6 mph N/A   Clear
1:35 AM 37.4 °F 27.5 °F 5.0 °F 26% 29.85 in 10.0 mi West 18.4 mph - N/A   Clear
1:55 AM 35.6 °F 24.8 °F 5.0 °F 28% 29.85 in 10.0 mi West 19.6 mph 24.2 mph N/A   Clear
2:15 AM 35.6 °F 24.8 °F 5.0 °F 28% 29.85 in 10.0 mi West 19.6 mph - N/A   Clear
2:35 AM 33.8 °F 23.2 °F 5.0 °F 30% 29.85 in 10.0 mi West 17.3 mph - N/A   Clear
2:55 AM 32.0 °F 21.6 °F 5.0 °F 32% 29.85 in 10.0 mi West 15.0 mph - N/A   Clear
3:15 AM 32.0 °F 21.6 °F 5.0 °F 32% 29.86 in 10.0 mi West 15.0 mph - N/A   Clear
3:35 AM 33.8 °F 23.5 °F 6.8 °F 32% 29.86 in 10.0 mi West 16.1 mph - N/A   Clear
3:55 AM 33.8 °F 23.9 °F 6.8 °F 32% 29.87 in 10.0 mi West 15.0 mph - N/A   Clear
4:15 AM 32.0 °F 22.1 °F 6.8 °F 35% 29.88 in 10.0 mi West 13.8 mph - N/A   Clear
4:35 AM 28.4 °F 19.1 °F 6.8 °F 40% 29.89 in 10.0 mi WNW 10.4 mph - N/A   Clear
6:50 AM 30.2 °F 21.9 °F 12.2 °F 47% 29.99 in 10.0 mi NNW 9.2 mph - N/A   Clear
7:50 AM 32.0 °F 22.1 °F 8.6 °F 38% 30.03 in 10.0 mi NNW 13.8 mph - N/A   Clear
8:50 AM 32.0 °F 21.2 °F 5.0 °F 32% 30.16 in 10.0 mi NNW 16.1 mph 27.6 mph N/A   Clear
9:50 AM 35.6 °F 27.5 °F -0.4 °F 22% 30.09 in 10.0 mi NNW 11.5 mph - N/A   Clear
10:50 AM 39.2 °F 31.6 °F -2.2 °F 17% 30.09 in 10.0 mi NW 12.7 mph 23.0 mph N/A   Clear
11:50 AM 41.0 °F 33.9 °F -9.4 °F 12% 30.09 in 10.0 mi NW 12.7 mph 23.0 mph N/A   Clear
12:50 PM 44.6 °F 37.8 °F -11.2 °F 9% 30.26 in 10.0 mi NW 15.0 mph 29.9 mph N/A   Clear
1:50 PM 44.6 °F 38.4 °F -13.0 °F 9% 30.04 in 10.0 mi WNW 12.7 mph 21.9 mph N/A   Clear
2:50 PM 46.4 °F 39.5 °F -20.2 °F 6% 30.04 in 10.0 mi NW 17.3 mph 23.0 mph N/A   Clear
4:50 PM 46.4 °F 40.4 °F -25.6 °F 4% 30.03 in 10.0 mi NNW 13.8 mph 18.4 mph N/A   Clear
5:50 PM 39.2 °F 34.2 °F -22.0 °F 7% 30.04 in 10.0 mi North 6.9 mph - N/A   Clear
7:50 PM 30.2 °F 22.6 °F -22.0 °F 10% 30.07 in 10.0 mi NNW 8.1 mph - N/A   Clear
8:50 PM 32.0 °F 24.2 °F -20.2 °F 10% 30.09 in 10.0 mi North 9.2 mph - N/A   Clear
9:15 PM 28.4 °F 21.2 °F -20.2 °F 11% 30.09 in 10.0 mi NNE 6.9 mph - N/A   Clear
9:35 PM 28.4 °F 23.3 °F -18.4 °F 12% 30.09 in 10.0 mi NE 4.6 mph - N/A   Clear
9:50 PM 28.4 °F 21.2 °F -20.2 °F 11% 30.09 in 10.0 mi NNE 6.9 mph - N/A   Clear
9:55 PM 28.4 °F 21.2 °F -18.4 °F 12% 30.09 in 10.0 mi NNE 6.9 mph - N/A   Clear
10:15 PM 30.2 °F - -18.4 °F 11% 30.09 in 10.0 mi Calm Calm - N/A   Clear
10:35 PM 26.6 °F - -18.4 °F 13% 30.09 in 10.0 mi Calm Calm - N/A   Clear
10:55 PM 24.8 °F - -18.4 °F 14% 30.09 in 10.0 mi Calm Calm - N/A   Clear
11:15 PM 24.8 °F - -20.2 °F 13% 30.09 in 10.0 mi Calm Calm - N/A   Clear
11:35 PM 19.4 °F - -20.2 °F 16% 30.09 in 10.0 mi Calm Calm - N/A   Clear
11:55 PM 23.0 °F - -18.4 °F 15% 30.09 in 10.0 mi Calm Calm - N/A   Clear